Home   Weather   Israel   Rishon LeZion   Past weeks
Flag for Israel

Past Weather in Rishon LeZion, Israel — Yesterday and Last 2 Weeks

Currently: 84 °F. Passing clouds. (Weather station: Ben Gurion International Airport, Israel). See more current weather

Past Weather in Rishon LeZion — Graph

°F

Rishon LeZion Temperature Yesterday

Maximum temperature yesterday: 90 °F (at 12:50 pm)
Minimum temperature yesterday: 73 °F (at 4:20 am)
Average temperature yesterday: 81 °F

High & Low Weather Summary for the Past Weeks

 TemperatureHumidityPressure
High91 °F (Jun 24, 12:50 pm)89% (Jun 23, 4:20 am)29.86 "Hg (Jun 23, 4:20 am)
Low72 °F (Jun 20, 3:50 am)38% (Jun 24, 5:20 pm)29.65 "Hg (Jun 25, 4:50 am)
Average80 °F64%29.75 "Hg
* Reported Jun 19 8:20 am — Jul 4 8:50 am, Rishon LeZion. Weather by CustomWeather, © 2022

Note: Actual official high and low records may vary slightly from our data, if they occured in-between our weather recording intervals... More about our weather records

Rishon LeZion Weather History for the Previous 24 Hours

Scroll right to see more
 ConditionsComfort  
Time TempWeatherWind HumidityBarometerVisibility
8:50 am
Mon, Jul 4
82 °FPassing clouds.3 mph66%29.71 "HgN/A
7:50 am79 °FSunny.5 mph70%29.71 "Hg10 mi
7:20 am77 °FSunny.6 mph69%29.71 "Hg10 mi
6:50 am75 °FSunny.3 mph74%29.71 "Hg10 mi
6:20 am75 °FSunny.3 mph74%29.68 "Hg10 mi
5:50 am75 °FPassing clouds.2 mph74%29.68 "HgN/A
5:20 am75 °FPassing clouds.5 mph74%29.68 "HgN/A
4:50 am75 °FPassing clouds.2 mph74%29.68 "HgN/A
4:20 am75 °FPassing clouds.2 mph74%29.68 "HgN/A
3:50 am77 °FClear.6 mph74%29.68 "Hg10 mi
2:20 am77 °FClear.6 mph74%29.68 "Hg10 mi
1:50 am77 °FClear.6 mph79%29.68 "Hg10 mi
1:20 am77 °FClear.5 mph79%29.68 "Hg10 mi
12:50 am79 °FClear.5 mph74%29.68 "Hg10 mi
12:20 am79 °FClear.5 mph74%29.68 "Hg10 mi
11:20 pm
Sun, Jul 3
81 °FClear.5 mph70%29.71 "Hg10 mi
10:50 pm81 °FClear.2 mph66%29.71 "Hg10 mi
10:20 pm81 °FPassing clouds.2 mph66%29.71 "HgN/A
9:50 pm81 °FPassing clouds.2 mph62%29.71 "HgN/A
9:20 pm82 °FPassing clouds.3 mph58%29.71 "HgN/A
8:50 pm82 °FPassing clouds.3 mph62%29.71 "HgN/A
8:20 pm82 °FPassing clouds.6 mph58%29.68 "HgN/A
7:50 pm82 °FPassing clouds.6 mph66%29.68 "HgN/A
7:20 pm82 °FPassing clouds.7 mph66%29.68 "HgN/A
6:50 pm84 °FPassing clouds.10 mph62%29.68 "HgN/A
6:20 pm84 °FPassing clouds.10 mph62%29.68 "HgN/A
5:50 pm86 °FPassing clouds.12 mph55%29.68 "HgN/A
5:20 pm86 °FPassing clouds.12 mph62%29.68 "HgN/A
4:50 pm86 °FPassing clouds.12 mph62%29.68 "HgN/A
4:20 pm86 °FPassing clouds.13 mph59%29.68 "HgN/A
3:50 pm86 °FPassing clouds.13 mph59%29.68 "HgN/A
3:20 pm86 °FPassing clouds.14 mph59%29.68 "HgN/A
2:50 pm86 °FPassing clouds.13 mph59%29.68 "HgN/A
2:20 pm88 °FPassing clouds.13 mph55%29.68 "HgN/A
1:50 pm88 °FPassing clouds.13 mph52%29.68 "HgN/A
1:20 pm88 °FPassing clouds.12 mph55%29.68 "HgN/A
12:50 pm90 °FPassing clouds.12 mph49%29.68 "HgN/A
12:20 pm88 °FPassing clouds.13 mph52%29.68 "HgN/A
11:50 am88 °FPassing clouds.8 mph52%29.68 "HgN/A
11:20 am86 °FPassing clouds.8 mph55%29.68 "HgN/A
10:20 am84 °FScattered clouds.7 mph55%29.68 "HgN/A
Weather by CustomWeather, © 2022

See weather overview